Showing default

JY1SAT, 43803

Orbit data source: Space-Track

JY1SAT, 43803 is a payload satellite owned by JUST (JO) in SSO that was launched on Mon, 03 Dec 2018 UTC via an FALCON 9 launch vehicle from the Air Force Western Test Range (AFWTR). Payload-class satellites include a variety of spacecraft equipped with specific instruments for various scientific and technological missions. These include communications satellites like Starlink; space stations such as the ISS; scientific satellites like the Hubble; Earth observation satellites from companies like Planet Labs, Umbra, and HawkEye 360; GPS; miniature CubeSats for education and research; and military/defense satellites.

Loading next visibility...
Identifier
43803, 2018-099AX
Orbit
SSO
Country
Flag of JOJO / JOR
Related business
Manufacturer
JUST
Mission
Operational Amateur Technology
Bus & Motor
CUBESAT 1U, Unknown motor
Mass
1 kg wet, 1 kg dry
Launch date (UTC)
2018-12-03 (7 years ago)
Launch vehicle
FALCON 9
Launch site
Air Force Western Test Range (AFWTR)
Object type
Payload
Rocket body
Debris
Shape & HBR
Box, 0.1 m
Radar Cross Section
0.015 m², Small (<0.1 m²)

Expand to show TLE details & history
Last TLE update: 13 hours ago

TLE from 13 hours ago
0 JY1SAT
1 43803U 18099AX  26034.40728098  .00018625  00000-0  66354-3 0  9997
2 43803  97.4329  97.1043 0006769  36.6169 323.5532 15.28957998393154
Epoch: 2026-02-03T09:46Z
TLE epoch observation values (Epoch: 2026-02-03T09:46:29.076Z)
Latitude
-0.00008°
Longitude
176.8945°
Altitude
478.294 km
Speed
7.629 km/s
True Right ascension
06h 28m 25s
True Declination
0° 00' 00"
Sunlit
Object was in full shadow at epoch
Visualization orbit readout
Latitude
Unknown
Longitude
Unknown
Altitude
Unknown
Speed
Unknown
Apparent Right ascension
Unknown
Apparent Declination
Unknown
Sunlit
N/A
Visualization observer readout
Local Sidereal Time
00:37:09
Azimuth
Unknown
Elevation
Unknown
Doppler factor
Unknown
Orbital elements
Apogee altitude
480.521 km
Perigee altitude
471.242 km
Semi-major axis
6,854.018 km
Eccentricity
0.00068
Inclination
97.4329°
RAAN
97.1043°
Arg. of periapsis
36.6169°
True anomaly
323.50709°
Mean anomaly
323.5532°
Eccentric anomaly
323.53015°
Mean motion
3.82495 °/min
Orbital period
94.12 mins
BSTAR
0.00066354
Loading maneuver chart data...
Computing Atmospheric mass density...
Loading historical data...
Loading historical data...
Loading historical data...
Loading historical data...
Loading historical data...
Loading historical data...
Loading historical data...

Documentation

Showing up to 5 results
|